User: anonymous
Location: Caltech
(34.1382°N, 118.1253°W)
Time: 20:41:54
(UTC-07:00)
Language:

Cosmos 1025 Rocket - Orbit

View from above orbital plane
View from above orbital plane
View from above satellite
View from above satellite

Ground track
Ground track

The orbit data is extracted from the following two-line orbital elements,

1 10974U 78067B   14292.33775892  .00000905  00000-0  98936-4 0  4405
2 10974 082.4850 009.3763 0016426 326.3301 100.2301 14.86695226963144
Epoch (UTC): 19 October 2014 08:06:22
Eccentricity: 0.0016426
inclination: 82.4850°
perigee height: 597 km
apogee height: 620 km
right ascension of ascending node: 9.3763°
argument of perigee: 326.3301°
revolutions per day: 14.86695226
mean anomaly at epoch: 100.2301°
orbit number at epoch: 96314

The dashed part of the orbit path shows where the satellite is in the earth's shadow,  

DLR